Location: Aldenham
(51.6667°N, 0.3500°W)
Time: 17:35:03
(UTC+00:00)

Cosmos 371 Rocket - Pass Details

Date: 18 November 2025
Orbit: 674 x 690 km, 74.0° (Epoch: 10 December)

Event Time Altitude Azimuth Distance (km) Brightness Sun altitude
Rises 18:43:13 0° 202° (SSW) 3,034 6.9 -23.8°
Reaches altitude 10° 18:45:31 10° 203° (SSW) 2,126 6.1 -24.2°
Maximum altitude 18:50:18 89° 120° (ESE) 694 3.1 -24.9°
Enters shadow 18:50:33 81° 31° (NNE) 702 3.1 -24.9°
